Weather History for Goodland, KS

Change the Weather History Date:

Tuesday, November 5, 2013

  Actual Average Record
Temperature  
Mean Temperature 31 °F 44 °F  
Max Temperature 38 °F 58 °F 82 °F (1914)
Min Temperature 24 °F 30 °F 8 °F (1967)
Degree Days  
Heating Degree Days 34 21  
Month to date heating degree days 113 101  
Since 1 July heating degree days 624 641  
Cooling Degree Days 0 0  
Month to date cooling degree days 0 0  
Year to date cooling degree days 1181 941  
Moisture  
Dew Point 32 °F    
Average Humidity 87    
Maximum Humidity 92    
Minimum Humidity 82    
Precipitation  
Precipitation 0.16 in 0.03 in 0.54 in (1953)
Month to date precipitation 0.16 0.16  
Year to date precipitation 16.68 18.65  
Snow  
Snow T in 0.10 in - ()
Month to date snowfall T 0.6  
Since 1 July snowfall 4.0 3.2  
Since 1 September snowfall 4.0 3.2  
Snow Depth 0.00 in    
Sea Level Pressure  
Sea Level Pressure 30.04 in    
Wind  
Wind Speed 13 mph (NNE)    
Max Wind Speed 31 mph    
Max Gust Speed 39 mph    
Visibility 8 miles    
Events Rain    
T = Trace of Precipitation, MM = Missing Value Source: NWS Daily Summary

Daily Weather History Graph

Daily Weather History Graph

Search for Another Location

Airport:

Trip Planner

Search our weather history database for the weather conditions in past years. The results will help you decide how hot, cold, wet, or windy it might be!

Date:

Astronomy

Nov. 05, 2013 Rise Set
Actual Time 6:19 AM MST 4:40 PM MST
Civil Twilight 5:51 AM MST 5:08 PM MST
Nautical Twilight 5:19 AM MST 5:40 PM MST
Astronomical Twilight 4:48 AM MST 6:12 PM MST
Moon 8:36 AM MST (11/5) 6:44 PM MST (11/5)
Length of Visible Light 11h 17m
Length of Day
10h 21m
Waxing Crescent, 7% of the Moon is Illuminated
Nov 5
Waxing Crescent
Nov 9
First Quarter
Nov 17
Full
Nov 25
Last Quarter
Dec 2
New

Hourly Weather History & Observations

Time (MST) Temp. Windchill Dew Point Humidity Pressure Visibility Wind Dir Wind Speed Gust Speed Precip Events Conditions
12:53 AM 34.0 °F 26.6 °F 28.9 °F 82% 29.99 in 10.0 mi ESE 9.2 mph - N/A   Clear
1:53 AM 33.1 °F 26.9 °F 28.9 °F 85% 29.98 in 10.0 mi ESE 6.9 mph - N/A   Mostly Cloudy
2:53 AM 35.1 °F 26.4 °F 32.0 °F 89% 29.97 in 10.0 mi ESE 12.7 mph - 0.01 in Rain Light Rain
3:53 AM 36.0 °F 27.5 °F 33.1 °F 89% 29.94 in 10.0 mi ESE 12.7 mph - 0.00 in   Overcast
4:42 AM 35.6 °F 27.5 °F 33.8 °F 93% 29.93 in 10.0 mi East 11.5 mph - N/A   Overcast
4:53 AM 36.0 °F 28.5 °F 34.0 °F 93% 29.96 in 10.0 mi ESE 10.4 mph - N/A   Overcast
5:31 AM 37.4 °F 30.3 °F 35.6 °F 93% 29.92 in 10.0 mi East 10.4 mph - N/A   Overcast
5:53 AM 37.0 °F 31.0 °F 35.1 °F 93% 29.95 in 9.0 mi ENE 8.1 mph - N/A   Overcast
6:48 AM 37.4 °F 31.4 °F 35.6 °F 93% 29.91 in 2.0 mi ENE 8.1 mph - 0.01 in Rain Light Rain
6:53 AM 36.0 °F 29.6 °F 35.1 °F 97% 29.95 in 2.0 mi ENE 8.1 mph - 0.01 in Rain Light Rain
7:17 AM 35.6 °F 28.6 °F 35.6 °F 100% 29.92 in 3.0 mi East 9.2 mph - 0.03 in Rain Light Rain
7:44 AM 37.4 °F 32.8 °F 35.6 °F 93% 29.93 in 2.5 mi ESE 5.8 mph - 0.05 in Rain Light Rain
7:53 AM 37.0 °F 34.5 °F 36.0 °F 96% 29.97 in 2.0 mi ENE 3.5 mph - 0.06 in Rain Light Rain
8:03 AM 37.4 °F 33.8 °F 35.6 °F 93% 29.93 in 1.5 mi North 4.6 mph - 0.01 in Rain Light Rain
8:22 AM 37.4 °F 32.8 °F 35.6 °F 93% 29.94 in 2.0 mi North 5.8 mph - 0.03 in Rain Light Rain
8:42 AM 37.4 °F 31.4 °F 35.6 °F 93% 29.93 in 3.0 mi North 8.1 mph - 0.05 in Rain Light Rain
8:53 AM 37.9 °F 31.5 °F 36.0 °F 93% 29.97 in 4.0 mi North 9.2 mph - 0.06 in Rain Light Rain
9:53 AM 37.9 °F 30.0 °F 36.0 °F 93% 29.98 in 7.0 mi NNW 12.7 mph - 0.01 in   Overcast
10:53 AM 36.0 °F 25.0 °F 33.1 °F 89% 30.00 in 10.0 mi NNW 20.7 mph 31.1 mph 0.01 in   Overcast
11:53 AM 35.1 °F 23.5 °F 33.1 °F 92% 30.01 in 10.0 mi North 21.9 mph 33.4 mph N/A   Overcast
12:53 PM 36.0 °F 25.3 °F 33.1 °F 89% 30.01 in 10.0 mi NNW 19.6 mph 29.9 mph 0.00 in   Overcast
1:49 PM 37.4 °F 27.2 °F 33.8 °F 87% 29.99 in 10.0 mi NNW 19.6 mph 31.1 mph 0.00 in   Overcast
1:53 PM 36.0 °F 24.2 °F 33.1 °F 89% 30.04 in 10.0 mi NNW 24.2 mph 29.9 mph 0.00 in   Overcast
2:53 PM 37.0 °F 25.4 °F 33.1 °F 86% 30.06 in 10.0 mi North 25.3 mph 31.1 mph N/A   Overcast
3:53 PM 36.0 °F 24.4 °F 32.0 °F 86% 30.10 in 10.0 mi North 23.0 mph 32.2 mph N/A   Overcast
4:53 PM 35.1 °F 24.8 °F 30.9 °F 85% 30.12 in 10.0 mi North 17.3 mph 27.6 mph N/A   Overcast
5:53 PM 34.0 °F 23.4 °F 30.0 °F 85% 30.15 in 10.0 mi North 17.3 mph - N/A   Mostly Cloudy
6:48 PM 32.0 °F 22.1 °F 28.4 °F 87% 30.13 in 10.0 mi North 13.8 mph - N/A   Scattered Clouds
6:53 PM 32.0 °F 22.1 °F 28.0 °F 85% 30.18 in 10.0 mi North 13.8 mph - N/A   Mostly Cloudy
7:18 PM 30.2 °F 19.3 °F 26.6 °F 86% 30.13 in 10.0 mi North 15.0 mph - N/A   Scattered Clouds
7:53 PM 30.0 °F 19.1 °F 26.1 °F 85% 30.18 in 10.0 mi North 15.0 mph - N/A   Clear
8:53 PM 28.9 °F 21.1 °F 26.1 °F 89% 30.22 in 10.0 mi NNW 8.1 mph - N/A   Clear
9:53 PM 26.1 °F 21.9 °F 23.0 °F 88% 30.23 in 10.0 mi NNW 3.5 mph - N/A   Clear
10:53 PM 24.1 °F 14.4 °F 21.9 °F 91% 30.24 in 10.0 mi West 9.2 mph - N/A   Clear
11:53 PM 24.1 °F 14.4 °F 21.0 °F 88% 30.25 in 10.0 mi West 9.2 mph - N/A   Clear